Location: Unspecified
(0.0000°N, 0.0000°E)
Time: 14:20:44
(UTC+02:00)

ARIANE 5 R/B - Visible Passes

Search period start: 03 July 2015 00:00
Search period end: 13 July 2015 00:00
Orbit: 680 x 38423 km, 6.6° (Epoch: 02 July)

Date Brightness Start Highest point End Pass type
(mag) Time Alt. Az. Time Alt. Az. Time Alt. Az.
03 Jul 7.2 01:50:25 10° W 02:32:37 80° N 12:52:01 10° ESE visible
04 Jul 7.5 00:51:59 10° W 01:14:45 80° N 11:54:11 10° E visible
04 Jul 6.9 23:54:05 10° W 00:08:25 80° N 10:55:49 10° E visible
05 Jul 6.1 22:56:33 10° W 23:06:16 81° N 09:56:42 10° E visible
06 Jul 5.3 21:59:15 10° W 22:06:11 84° N 08:56:20 10° E visible
07 Jul 4.6 21:02:03 10° W 21:07:15 89° N 07:53:57 10° E visible
08 Jul 3.8 20:04:50 10° W 20:09:00 81° S 06:47:50 10° E visible
08 Jul 3.8 20:04:50 10° W 20:09:00 81° S 20:23:24 10° E visible
09 Jul 3.4 19:07:22 10° WSW 19:11:07 66° S 05:32:55 10° E visible
10 Jul 3.3 18:09:12 10° WSW 18:13:23 53° S 18:18:00 10° E visible
11 Jul 3.8 07:03:08 10° W 17:15:36 48° S 17:19:20 10° ESE visible
12 Jul 4.5 05:42:57 10° W 16:17:39 51° S 16:21:38 10° ESE visible
